Marco Island, FL

12:00 PM EDT on October 01, 2016 (GMT -0400)
Marco Island

Weather History for KMKY - December, 2013

Change the Weather History Date:

Sunday, December 29, 2013

  Actual Average (KAPF) Record (KAPF)
Temperature  
Mean Temperature 74 °F 65 °F  
Max Temperature 78 °F 75 °F 88 °F (1990)
Min Temperature 69 °F 55 °F 38 °F (1977)
Degree Days  
Heating Degree Days 0 3  
Month to date heating degree days 55  
Since 1 July heating degree days 69  
Cooling Degree Days 8 3  
Month to date cooling degree days 116  
Year to date cooling degree days 3935  
Growing Degree Days 24 (Base 50)    
Moisture  
Dew Point -    
Average Humidity    
Maximum Humidity    
Minimum Humidity    
Precipitation  
Precipitation 0.09 in 0.03 in 0.78 in (1942)
Month to date precipitation 1.37  
Year to date precipitation 51.81  
Snow  
Snow 0.00 in - - ()
Month to date snowfall  
Since 1 July snowfall  
Snow Depth -    
Sea Level Pressure  
Sea Level Pressure 29.98 in    
Wind  
Wind Speed 7 mph (South)    
Max Wind Speed 17 mph    
Max Gust Speed 23 mph    
Visibility 10 miles    
Events      
T = Trace of Precipitation, MM = Missing Value Source: NWS Daily Summary

Daily Weather History Graph

Daily Weather History Graph

Search for Another Location

Airport or City:

Trip Planner

Search our weather history database for the weather conditions in past years. The results will help you decide how hot, cold, wet, or windy it might be!

Date:

Astronomy

Dec. 29, 2013 Rise Set
Actual Time 7:12 AM EST 5:44 PM EST
Civil Twilight 6:47 AM EST 6:10 PM EST
Nautical Twilight 6:19 AM EST 6:38 PM EST
Astronomical Twilight 5:50 AM EST 7:07 PM EST
Moon 4:03 AM EST (12/29) 3:15 PM EST (12/29)
Length of Visible Light 11h 22m
Length of Day
10h 32m
Waning Crescent, 11% of the Moon is Illuminated
Dec 29
Waning Crescent
Jan 1
New
Jan 7
First Quarter
Jan 15
Full
Jan 24
Last Quarter

Hourly Weather History & Observations

Time (EST) Temp. Dew Point Humidity Pressure Visibility Wind Dir Wind Speed Gust Speed Precip Events Conditions
12:15 AM 71.6 °F - N/A% 30.02 in 10.0 mi East 5.8 mph - N/A   Clear
12:35 AM 71.6 °F - N/A% 30.02 in 10.0 mi ESE 5.8 mph - N/A   Clear
12:55 AM 71.6 °F - N/A% 30.01 in 10.0 mi ESE 6.9 mph - N/A   Clear
1:15 AM 71.6 °F - N/A% 30.01 in 10.0 mi ESE 6.9 mph - N/A   Clear
1:35 AM 71.6 °F - N/A% 30.00 in 10.0 mi ESE 6.9 mph - N/A   Clear
1:55 AM 71.6 °F - N/A% 30.00 in 10.0 mi ESE 5.8 mph - N/A   Clear
2:15 AM 71.6 °F - N/A% 30.00 in 10.0 mi SE 6.9 mph - N/A   Clear
2:35 AM 71.6 °F - N/A% 29.98 in 10.0 mi SE 9.2 mph - N/A   Clear
2:55 AM 71.6 °F - N/A% 29.96 in 10.0 mi ESE 6.9 mph - N/A   Clear
3:15 AM 71.6 °F - N/A% 29.95 in 10.0 mi ESE 4.6 mph - N/A   Clear
3:35 AM 71.6 °F - N/A% 29.95 in 10.0 mi ESE 4.6 mph - N/A   Clear
3:55 AM 71.6 °F - N/A% 29.95 in 10.0 mi ESE 5.8 mph - N/A   Partly Cloudy
4:15 AM 71.6 °F - N/A% 29.96 in 10.0 mi SE 4.6 mph - N/A   Mostly Cloudy
4:35 AM 71.6 °F - N/A% 29.96 in 10.0 mi SSE 4.6 mph - N/A   Mostly Cloudy
4:55 AM 71.6 °F - N/A% 29.97 in 10.0 mi South 8.1 mph - N/A   Mostly Cloudy
5:15 AM 73.4 °F - N/A% 29.97 in 10.0 mi SSE 11.5 mph - N/A   Partly Cloudy
5:35 AM 73.4 °F - N/A% 29.97 in 10.0 mi SSE 9.2 mph - N/A   Clear
5:55 AM 73.4 °F - N/A% 29.99 in 10.0 mi South 6.9 mph - N/A   Clear
6:15 AM 73.4 °F - N/A% 30.00 in 10.0 mi South 6.9 mph - N/A   Scattered Clouds
6:35 AM 73.4 °F - N/A% 29.99 in 10.0 mi SSE 6.9 mph - N/A   Scattered Clouds
6:55 AM 73.4 °F - N/A% 29.98 in 10.0 mi SSE 6.9 mph - N/A   Partly Cloudy
7:15 AM 73.4 °F - N/A% 29.99 in 10.0 mi SSE 5.8 mph - N/A   Partly Cloudy
7:35 AM 73.4 °F - N/A% 30.00 in 10.0 mi SSE 4.6 mph - N/A   Partly Cloudy
7:55 AM 73.4 °F - N/A% 30.01 in 10.0 mi SSE 4.6 mph - N/A   Mostly Cloudy
8:15 AM 73.4 °F - N/A% 30.00 in 10.0 mi SSE 5.8 mph - N/A   Overcast
8:35 AM 73.4 °F - N/A% 30.01 in 10.0 mi SSE 6.9 mph - 0.01 in   Overcast
8:55 AM 73.4 °F - N/A% 30.01 in 10.0 mi SSE 8.1 mph - 0.02 in   Mostly Cloudy
9:15 AM 73.4 °F - N/A% 30.02 in 9.0 mi SSE 10.4 mph - N/A   Mostly Cloudy
9:35 AM 73.4 °F - N/A% 30.02 in 9.0 mi South 8.1 mph - 0.01 in   Mostly Cloudy
9:55 AM 73.4 °F - N/A% 30.03 in 10.0 mi South 10.4 mph 16.1 mph 0.02 in   Partly Cloudy
10:15 AM 73.4 °F - N/A% 30.04 in 8.0 mi South 10.4 mph - N/A   Scattered Clouds
10:35 AM 73.4 °F - N/A% 30.03 in 10.0 mi South 10.4 mph - 0.01 in   Mostly Cloudy
10:55 AM 73.4 °F - N/A% 30.03 in 9.0 mi South 6.9 mph - 0.01 in   Overcast
11:15 AM 73.4 °F - N/A% 30.02 in 7.0 mi South 12.7 mph 17.3 mph 0.01 in   Mostly Cloudy
11:35 AM 75.2 °F - N/A% 30.02 in 8.0 mi SSW 11.5 mph - 0.02 in   Mostly Cloudy
11:55 AM 75.2 °F - N/A% 30.01 in 10.0 mi SSW 11.5 mph 16.1 mph 0.03 in   Mostly Cloudy
12:15 PM 75.2 °F - N/A% 29.99 in 8.0 mi SSW 11.5 mph - N/A   Mostly Cloudy
12:35 PM 75.2 °F - N/A% 29.96 in 9.0 mi South 12.7 mph 21.9 mph N/A   Scattered Clouds
12:55 PM 75.2 °F - N/A% 29.96 in 10.0 mi South 12.7 mph 19.6 mph 0.01 in   Mostly Cloudy
1:15 PM 75.2 °F - N/A% 29.95 in 10.0 mi SSW 11.5 mph 17.3 mph N/A   Partly Cloudy
1:35 PM 75.2 °F - N/A% 29.95 in 10.0 mi South 13.8 mph 23.0 mph N/A   Partly Cloudy
1:55 PM 75.2 °F - N/A% 29.94 in 10.0 mi South 13.8 mph 20.7 mph N/A   Mostly Cloudy
2:15 PM 75.2 °F - N/A% 29.94 in 10.0 mi South 11.5 mph 18.4 mph N/A   Overcast
2:35 PM 77.0 °F - N/A% 29.94 in 10.0 mi South 12.7 mph 17.3 mph N/A   Overcast
2:55 PM 77.0 °F - N/A% 29.94 in 10.0 mi South 12.7 mph 19.6 mph N/A   Overcast
3:15 PM 78.8 °F - N/A% 29.94 in 10.0 mi SSW 15.0 mph 21.9 mph N/A   Mostly Cloudy
3:35 PM 77.0 °F - N/A% 29.93 in 10.0 mi South 17.3 mph 21.9 mph N/A   Mostly Cloudy
3:55 PM 77.0 °F - N/A% 29.94 in 10.0 mi SSW 11.5 mph 19.6 mph N/A   Mostly Cloudy
4:15 PM 75.2 °F - N/A% 29.94 in 10.0 mi SSW 10.4 mph 18.4 mph N/A   Mostly Cloudy
4:35 PM 75.2 °F - N/A% 29.95 in 9.0 mi SSW 9.2 mph 16.1 mph N/A   Overcast
4:55 PM 75.2 °F - N/A% 29.95 in 10.0 mi SSW 10.4 mph 17.3 mph N/A   Partly Cloudy
5:15 PM 75.2 °F - N/A% 29.96 in 10.0 mi SW 9.2 mph - N/A   Partly Cloudy
5:35 PM 73.4 °F - N/A% 29.96 in 10.0 mi SW 6.9 mph - N/A   Partly Cloudy
5:55 PM 73.4 °F - N/A% 29.97 in 10.0 mi SW 8.1 mph - N/A   Partly Cloudy
6:15 PM 73.4 °F - N/A% 29.97 in 10.0 mi SW 6.9 mph - N/A   Mostly Cloudy
6:35 PM 71.6 °F - N/A% 29.97 in 10.0 mi SW 6.9 mph - N/A   Partly Cloudy
6:55 PM 71.6 °F - N/A% 29.98 in 10.0 mi WSW 5.8 mph - N/A   Clear
7:15 PM 71.6 °F - N/A% 29.98 in 10.0 mi SW 6.9 mph - N/A   Partly Cloudy
7:35 PM 71.6 °F - N/A% 29.98 in 10.0 mi SW 5.8 mph - N/A   Partly Cloudy
7:55 PM 71.6 °F - N/A% 29.99 in 10.0 mi SSW 6.9 mph - N/A   Partly Cloudy
8:15 PM 69.8 °F - N/A% 29.99 in 10.0 mi SSW 5.8 mph - N/A   Partly Cloudy
8:35 PM 69.8 °F - N/A% 29.99 in 10.0 mi SW 4.6 mph - N/A   Clear
8:55 PM 69.8 °F - N/A% 29.99 in 10.0 mi SSW 4.6 mph - N/A   Clear
9:15 PM 69.8 °F - N/A% 29.99 in 10.0 mi SSW 5.8 mph - N/A   Clear
9:35 PM 69.8 °F - N/A% 30.00 in 10.0 mi South 4.6 mph - N/A   Partly Cloudy
9:55 PM 69.8 °F - N/A% 30.00 in 10.0 mi South 4.6 mph - N/A   Partly Cloudy
10:15 PM 69.8 °F - N/A% 30.00 in 10.0 mi SSW 3.5 mph - N/A   Mostly Cloudy
10:35 PM 71.6 °F - N/A% 30.01 in 10.0 mi SW 3.5 mph - N/A   Overcast
10:55 PM 71.6 °F - N/A% 30.02 in 10.0 mi NW 4.6 mph - N/A   Overcast
11:15 PM 71.6 °F - N/A% 30.02 in 10.0 mi NW 3.5 mph - N/A   Overcast
11:35 PM 71.6 °F - N/A% 30.02 in 10.0 mi North 3.5 mph - N/A   Overcast
11:55 PM 71.6 °F - N/A% 30.02 in 10.0 mi Calm Calm - N/A   Overcast